Location: Newark
(11.2914°S, 14.4718°E)
Time: 21:34:57
(UTC+00:00)

Vanguard 2 - Pass Details

Date: 24 September 2019
Orbit: 554 x 2937 km, 32.9° (Epoch: 17 October)

Event Time Altitude Azimuth Distance (km) Brightness Sun altitude
Rises 21:35:56 0° 250° (WSW) 6,036 12.4 -67.2°
Reaches altitude 10° 21:39:49 10° 256° (WSW) 5,266 11.9 -68.0°
Enters shadow 21:45:19 26° 268° (W) 4,334 11.3 -69.2°
